Theta_e
331 331 330 331 331 332 332 332 332 333 333 333 333 332 331 331 331 331 330 330 331 332 333 333 333 333 333 333 332 333 333 332 332 333 331 330 331 331 331 331 331 330
331 330 330 330 331 331 330 331 331 331 332 332 333 332 331 331 330 330 329 328 330 332 332 333 333 333 332 332 332 333 332 332 332 332 331 330 331 331 331 331 331 331
329 329 329 329 329 330 330 330 330 330 331 332 332 331 331 331 330 330 329 329 330 332 332 332 333 333 332 332 332 331 331 331 332 331 330 331 331 331 331 331 331 331
328 328 328 328 329 329 329 330 330 330 331 331 332 332 331 331 330 331 330 329 330 331 332 332 332 332 332 332 332 331 330 331 332 331 330 331 331 331 331 331 331 331
327 328 328 327 328 328 329 329 330 330 330 331 331 331 331 331 330 331 331 330 329 331 332 332 331 332 332 332 332 331 330 331 331 331 331 331 331 331 331 331 331 330
327 327 327 327 327 327 328 329 329 330 330 330 331 331 331 331 331 331 331 331 331 331 332 332 331 331 332 332 332 331 331 330 329 329 330 331 331 331 331 330 330 330
327 327 327 327 327 327 328 328 329 330 329 329 330 330 330 331 331 331 331 331 332 332 332 332 331 331 332 331 331 331 331 330 328 327 329 330 330 330 330 330 331 330
326 326 326 327 328 327 327 327 328 329 329 329 329 330 330 331 331 331 331 331 332 331 331 331 332 332 332 331 331 331 331 330 329 329 329 329 329 330 330 330 331 331
325 326 326 327 327 327 327 328 328 329 329 329 329 329 330 330 331 331 331 331 331 330 331 331 331 332 332 332 331 331 331 330 329 328 328 329 330 331 331 330 330 330
325 325 325 326 327 327 328 328 329 329 329 329 329 329 329 330 331 331 331 330 330 330 331 331 331 332 332 332 331 331 331 330 329 328 329 330 331 331 331 330 330 330
324 325 325 325 326 327 328 328 328 328 328 328 328 329 329 329 330 330 330 330 331 331 331 331 331 331 332 332 332 332 331 330 330 330 330 331 332 331 331 330 330 331
324 325 325 325 325 326 327 327 327 327 327 326 327 328 329 329 329 329 329 329 330 331 330 330 331 330 331 331 331 332 331 331 331 331 331 331 331 331 332 331 331 331
322 324 325 325 325 326 326 326 327 327 327 326 327 328 328 329 329 329 328 327 329 330 330 330 330 330 329 329 329 330 330 330 330 331 330 330 331 331 331 330 330 331
319 321 323 324 325 325 325 326 326 326 326 326 326 327 328 329 329 329 328 327 327 329 330 330 329 329 328 328 328 328 328 328 329 330 330 330 330 330 330 330 330 330
316 318 320 323 325 325 325 326 326 326 326 326 326 327 327 328 328 328 328 327 327 329 330 329 329 328 328 328 327 327 327 328 328 328 329 329 330 330 329 329 329 329
315 316 318 320 323 324 325 325 325 326 326 326 326 326 327 327 327 327 327 327 328 329 329 329 328 327 327 327 327 327 327 327 328 327 328 329 329 329 329 329 329 329
314 316 318 320 322 323 324 325 325 325 325 325 325 326 326 326 326 326 326 327 327 328 328 328 327 327 327 327 327 327 327 327 327 327 327 328 328 328 329 329 329 328
313 316 319 320 322 323 324 324 325 325 325 324 325 325 325 325 325 325 325 326 325 325 327 328 327 327 326 326 326 326 326 326 326 326 326 327 328 328 329 328 328 327
312 315 317 319 320 321 322 323 324 324 324 323 324 324 324 324 324 324 324 324 324 325 326 327 327 326 326 325 325 325 325 325 325 325 326 327 328 328 327 326 325 324
311 313 314 315 316 319 321 321 322 323 323 322 323 323 322 322 322 323 323 323 323 325 326 325 326 326 325 324 324 323 324 325 325 326 326 326 325 324 323 322 321 321
309 311 312 312 313 315 317 318 317 318 319 319 319 320 320 319 319 320 322 323 323 324 324 324 325 324 323 323 322 323 324 325 326 326 326 324 322 320 320 319 319 319
308 309 309 310 310 311 313 314 314 313 314 314 315 315 315 316 316 316 318 320 321 322 322 323 323 322 322 322 322 323 325 326 326 325 323 321 319 318 317 317 318 318
307 308 308 307 307 307 308 310 311 311 310 311 312 312 312 312 313 313 314 315 317 319 321 321 321 320 321 322 322 323 324 325 324 321 319 318 316 316 316 316 316 317
305 306 306 306 306 305 305 306 308 310 309 309 310 311 311 311 312 313 312 313 315 317 319 319 320 320 321 321 322 323 324 324 322 318 316 315 315 315 315 315 315 316
304 305 306 306 305 304 304 304 305 307 308 308 308 310 311 311 312 312 311 311 313 315 317 318 318 319 319 320 320 322 323 323 320 317 315 315 315 315 315 316 317 318
304 304 305 305 305 304 304 304 304 305 307 308 307 308 310 311 312 312 310 309 310 312 313 316 317 318 318 318 319 319 320 320 318 315 314 314 315 316 317 317 318 319
Wind_Speed
12 13 13 14 13 12 13 16 16 15 15 14 13 13 13 15 16 17 19 19 17 17 19 20 17 15 13 12 12 12 13 14 16 18 18 16 16 19 19 17 16 17
11 12 12 13 11 10 11 14 15 15 16 15 14 13 13 13 14 16 18 19 19 18 17 18 18 15 11 11 12 12 13 13 16 19 18 17 18 19 19 17 16 15
14 14 14 12 11 10 10 10 12 14 16 17 15 14 13 11 12 15 18 20 21 19 17 17 18 16 14 14 15 14 14 14 16 19 20 19 18 17 16 16 15 14
15 14 13 12 12 12 11 11 12 13 15 16 15 12 10 9 11 14 16 19 20 18 18 19 19 19 19 18 17 15 16 16 15 17 19 17 16 15 15 14 12 12
13 12 11 12 14 13 13 14 14 13 14 15 13 11 10 10 11 13 14 16 17 16 18 19 19 20 20 19 17 16 17 18 17 18 17 15 13 14 14 13 12 12
11 12 13 14 15 15 14 14 14 13 15 15 13 11 12 11 11 12 13 14 15 16 18 19 19 19 20 19 19 18 18 17 17 18 16 13 12 12 13 14 13 13
12 14 16 15 14 13 12 13 14 13 13 13 13 11 12 12 12 12 13 13 16 19 20 20 20 20 21 21 20 19 17 15 15 16 14 13 14 13 13 14 14 13
13 14 16 16 13 12 11 12 13 12 10 11 12 12 12 12 12 12 13 13 15 18 19 20 21 21 21 21 19 18 17 16 15 13 12 14 15 15 14 14 14 14
13 12 15 16 15 14 13 13 15 15 14 12 12 13 12 13 13 13 14 14 14 16 18 19 20 21 21 20 18 17 18 18 16 13 13 14 14 14 14 14 15 15
13 12 13 16 16 15 14 15 18 19 17 13 11 11 13 13 13 14 15 16 17 16 16 19 21 21 20 18 16 16 17 17 16 14 13 14 14 13 14 14 16 16
14 13 13 14 16 17 16 17 20 21 17 13 11 12 14 14 14 14 15 19 20 18 18 20 21 20 19 16 15 16 16 17 16 14 13 14 13 14 14 15 16 16
15 14 14 15 15 16 16 17 19 20 19 15 13 15 16 16 15 14 15 19 21 21 21 21 20 19 19 17 17 17 17 17 16 15 14 14 13 13 14 14 15 15
17 16 16 17 16 16 15 15 16 18 18 17 16 16 16 18 19 19 19 20 21 22 22 21 20 19 19 17 16 16 15 15 15 14 13 13 13 13 13 13 14 14
19 18 17 17 17 16 15 14 14 16 17 17 18 17 16 19 22 22 21 22 22 23 23 21 20 20 18 17 15 15 15 14 14 14 13 12 12 12 13 13 13 13
20 20 18 17 16 15 15 14 15 17 17 17 18 18 16 18 22 23 23 24 24 23 23 22 21 19 18 16 16 15 15 14 15 15 14 12 11 11 12 13 13 13
20 20 20 18 17 16 15 14 15 17 17 17 18 17 15 17 22 24 24 26 26 24 23 22 21 19 16 15 15 15 15 15 15 16 16 14 13 13 14 14 15 14
20 20 19 17 16 16 15 14 14 15 16 15 15 18 19 20 23 24 25 25 24 23 23 22 20 18 16 15 15 15 15 15 16 16 16 16 15 16 16 16 15 15
22 20 18 16 15 15 15 14 14 13 13 14 16 19 21 21 22 23 23 23 23 23 22 22 20 18 16 15 14 14 14 14 16 16 17 17 18 18 17 17 16 16
23 20 18 17 16 16 15 14 13 12 13 16 17 19 19 20 23 23 21 22 23 23 22 21 20 17 15 14 13 13 13 14 15 16 17 18 19 19 19 18 18 18
23 20 18 18 17 16 13 10 8 9 11 14 16 18 18 20 22 23 22 21 21 21 21 20 19 17 14 13 13 13 13 14 16 18 19 19 20 20 19 19 20 21
23 20 18 18 17 15 11 6 3 1 6 10 14 18 19 20 20 20 21 21 19 20 21 20 18 16 13 13 13 14 14 15 17 19 20 20 19 20 20 22 24 24
22 20 19 18 17 16 12 8 7 7 8 10 14 17 17 17 16 16 18 19 20 20 20 19 18 15 14 14 15 15 15 16 19 21 22 22 21 22 23 25 27 27
22 19 18 17 18 18 15 12 9 10 11 11 14 17 17 15 14 15 15 15 18 18 17 17 18 16 15 16 17 16 16 18 21 22 22 23 22 22 24 26 27 25
22 20 17 17 17 17 15 13 11 12 12 13 15 19 20 18 17 18 16 15 17 18 17 18 20 18 17 18 18 17 17 19 23 24 23 23 21 20 20 22 23 21
20 20 18 17 16 15 14 13 14 15 15 16 19 23 23 21 20 20 20 19 20 20 20 21 22 20 18 18 18 18 18 21 24 26 26 26 24 23 21 19 20 21
21 18 18 19 18 17 15 14 15 18 20 21 23 26 27 25 24 23 23 23 23 22 22 23 22 20 17 15 16 18 19 21 24 26 27 27 27 27 26 23 21 21
Wind_Direction
270 267 264 266 265 259 247 242 241 236 234 233 229 229 223 220 233 239 235 231 227 223 222 221 218 213 207 204 204 207 210 216 222 223 219 213 211 214 216 215 214 215
285 283 281 281 279 269 253 246 245 243 241 240 233 230 230 221 219 225 227 227 228 227 225 222 221 215 203 201 208 214 215 213 218 221 216 212 212 213 215 215 215 215
298 296 292 288 281 273 264 253 249 247 245 244 237 231 231 222 213 215 217 220 224 226 224 221 219 214 207 209 212 219 224 216 213 215 211 208 209 208 211 212 215 215
305 302 296 289 280 272 268 261 252 248 246 245 240 232 230 222 213 213 215 218 222 223 223 222 220 216 215 215 211 213 224 224 217 212 207 205 207 207 209 209 210 213
307 300 291 282 274 268 265 260 255 251 248 244 240 237 239 229 216 213 213 214 216 218 220 221 220 218 217 215 209 207 217 224 223 216 207 202 203 204 205 203 203 205
301 284 279 275 268 263 262 258 254 251 247 244 241 240 241 233 220 216 214 212 213 216 219 219 217 217 215 212 209 206 208 215 220 216 207 200 197 197 198 196 197 199
292 281 280 279 268 260 259 257 259 256 248 247 247 242 237 231 222 217 215 216 218 220 221 220 217 214 210 207 205 203 200 206 216 213 206 204 197 193 194 192 191 193
289 287 286 282 271 262 258 257 260 258 247 247 248 241 234 229 222 215 214 215 216 220 222 220 216 212 207 203 198 197 198 205 213 208 200 203 196 189 191 188 187 190
290 291 288 283 277 273 268 258 254 253 248 243 239 236 232 228 221 214 211 210 208 214 219 216 212 207 204 201 194 194 197 200 205 204 199 201 194 186 186 186 187 191
297 295 291 285 280 278 271 257 254 256 251 241 231 231 232 229 221 213 210 211 209 210 214 211 206 201 198 196 192 193 196 197 200 201 199 201 196 187 185 186 189 191
304 300 295 287 279 275 269 261 261 260 253 243 231 227 230 228 221 214 211 212 209 206 208 206 201 197 195 191 188 190 192 194 197 195 194 197 196 192 191 191 193 192
314 306 299 292 283 277 273 268 266 262 257 249 233 223 224 222 216 213 213 213 207 200 202 203 198 195 194 190 188 189 189 191 192 191 191 193 192 192 193 193 194 194
322 314 305 295 288 284 280 277 271 265 260 252 236 223 218 215 213 214 214 214 209 201 198 199 196 193 192 189 186 186 185 186 189 188 185 186 187 188 189 191 191 192
325 320 313 302 294 289 283 279 276 268 261 251 238 225 214 214 215 212 207 209 209 202 196 195 194 193 192 188 184 184 185 186 186 184 179 178 182 183 183 184 185 187
327 323 318 309 300 292 283 278 278 271 259 245 234 224 214 214 215 207 200 202 204 200 195 193 193 194 192 188 186 187 187 186 185 186 184 178 174 174 177 177 178 182
334 329 325 318 307 298 289 279 274 268 255 239 227 220 215 213 211 204 198 198 197 195 194 193 190 191 190 189 190 190 188 185 186 189 189 183 176 173 174 175 178 184
345 338 332 325 314 304 296 286 276 267 255 237 221 218 218 213 207 201 198 199 198 193 190 189 187 187 187 188 189 189 188 187 187 189 190 188 184 179 178 179 181 184
356 350 341 336 328 314 303 294 284 270 250 234 224 219 215 208 204 201 197 196 195 191 186 185 186 185 184 185 186 187 189 191 193 193 191 190 187 183 182 182 181 182
3 359 353 348 340 325 314 303 287 266 242 230 221 213 207 202 202 200 193 187 186 184 182 183 181 179 179 183 186 187 190 194 195 192 188 186 185 184 183 180 177 175
7 5 3 1 355 339 328 319 293 255 226 214 204 199 197 194 195 193 186 182 181 179 179 179 175 173 177 183 184 182 184 188 188 183 181 181 180 179 177 173 170 166
10 8 10 12 9 360 353 358 10 163 183 182 179 181 182 183 185 185 178 175 176 177 178 174 168 168 175 180 178 175 176 180 178 175 174 173 171 169 166 162 158 154
12 12 16 19 19 17 18 31 54 77 101 129 147 155 160 166 170 167 163 164 168 172 173 167 160 162 171 177 177 174 174 175 173 170 168 165 161 160 158 154 151 149
17 17 21 24 26 26 27 36 59 78 88 108 128 131 128 130 134 133 135 143 150 156 161 156 150 152 165 174 177 175 172 169 167 163 158 154 153 154 151 148 146 147
23 24 27 30 31 30 29 36 59 80 90 101 112 115 113 111 116 116 110 109 120 130 137 138 136 141 156 166 170 174 173 168 164 158 149 143 141 138 138 141 143 145
27 28 33 38 38 34 31 38 59 81 96 99 100 104 107 106 107 106 97 96 105 115 124 128 128 134 149 158 163 168 169 165 161 154 145 139 135 132 132 139 145 146
33 31 36 45 49 47 43 44 59 78 92 94 91 95 100 101 100 96 89 87 93 101 110 119 123 131 144 155 158 160 163 162 157 147 137 132 133 134 133 135 141 142